User: anonymous   Login
Location: Clarks Summit,Pa.
(41.5000°N, 75.6000°W)
Time: 00:21:28
(UTC-05:00)
Language:

Envisat - Orbit

View from above orbital plane
View from above orbital plane
View from above satellite
View from above satellite

Ground track
Ground track

The orbit data is extracted from the following two-line orbital elements,

1 27386U 02009A   19049.71569057 -.00000003  00000-0  12413-4 0  9999
2 27386  98.1608  76.8082 0001176  96.7157  16.1541 14.37941535888959
Epoch (UTC): 18 February 2019 17:10:35
Eccentricity: 0.0001176
inclination: 98.1608°
perigee height: 764 km
apogee height: 766 km
right ascension of ascending node: 76.8082°
argument of perigee: 96.7157°
revolutions per day: 14.37941535
mean anomaly at epoch: 16.1541°
orbit number at epoch: 88895

The dashed part of the orbit path shows where the satellite is in the earth's shadow,  

DLR